Regional Weather Roundup
Issued by NWS Upton, NY

Current Version | Previous Version | Graphics & Text | Print | Product List | Glossary Off
Versions: 1 2 3 4 5 6 7 8 9 10 11 12 13 14 15 16 17 18 19 20 21 22 23 24 25 26 27 28 29 30 31 32 33 34 35 36 37 38 39 40 41 42 43 44 45 46 47 48 49 50

000
ASUS41 KOKX 230718
RWROKX

REGIONAL WEATHER ROUNDUP
NATIONAL WEATHER SERVICE NEW YORK NY
300 AM EDT SAT MAY 23 2015

NOTE: "FAIR" INDICATES FEW OR NO CLOUDS BELOW 12,000 FEET WITH NO
SIGNIFICANT WEATHER AND/OR OBSTRUCTIONS TO VISIBILITY.

NYZ071-072-176-178-NJZ106-104-230800-
NEW YORK CITY METRO AREA


CITY           SKY/WX    TMP DP  RH WIND       PRES   REMARKS
CENTRAL PARK   CLEAR     54  23  30 VRB7      30.26R
LAGUARDIA APRT CLEAR     55  28  35 NW20      30.23R
KENNEDY INTL   CLEAR     56  23  27 NW23      30.23R
NEWARK/LIBERTY CLEAR     53  26  35 NW14      30.25R
BRNX BOT. GARD   N/A     52  27  37 N6        30.24S
TETERBORO      CLEAR     52  24  33 NW12      30.24R
$$

NYZ177-179-078>081-230800-
LONG ISLAND NEW YORK

CITY           SKY/WX    TMP DP  RH WIND       PRES   REMARKS
FARMINGDALE    CLEAR     54  30  40 NW10      30.21R
ISLIP          CLEAR     54  29  38 NW15      30.18R
SHIRLEY        CLEAR     54  32  43 NW10      30.19R
WESTHAMPTON    CLEAR     51  34  52 NW8       30.19R
MONTAUK POINT    N/A     54  37  52 NW9       30.17R
$$

NYZ052-065-067-230800-
HUDSON VALLEY

CITY           SKY/WX    TMP DP  RH WIND       PRES   REMARKS
WHITE PLAINS   CLEAR     51  24  34 W10       30.20R
NEWBURGH       CLEAR     46  27  46 NW9       30.21S
MONTGOMERY     CLEAR     46  26  45 W8        30.23R
POUGHKEEPSIE   CLEAR     49  26  41 N10       30.22R
ALBANY         PTCLDY    43  28  55 N9        30.25R
$$

NJZ001-105-106-008-010-013-015-019>022-104-230800-
NEW JERSEY

CITY           SKY/WX    TMP DP  RH WIND       PRES   REMARKS
NEWARK/LIBERTY CLEAR     53  26  35 NW14      30.25R
TETERBORO      CLEAR     52  24  33 NW12      30.24R
CALDWELL       CLEAR     50  25  37 NW6       30.26R
MORRISTOWN     CLEAR     52  23  32 NW3       30.26R
SOMERVILLE     CLEAR     47  36  65 NW5       30.25R
SUSSEX         CLEAR     45  26  47 CALM      30.27R
ANDOVER          N/A     47  26  44 CALM      30.27R
TRENTON        CLEAR     51  36  56 NW5       30.26R
MILLVILLE      CLEAR     56  31  38 NW8       30.25R
ATLANTIC CITY  CLEAR     50  39  66 N6        30.24R
WRIGHTSTOWN    CLEAR     52  36  55 N10       30.24R
TOMS RIVER     CLEAR    N/A N/A N/A NW8       30.24R
BELMAR         CLEAR     52  34  50 NW10      30.24R
$$

PAZ047>061-062-071-230800-
EASTERN PENNSYLVANIA

CITY           SKY/WX    TMP DP  RH WIND       PRES   REMARKS
PHILADELPHIA   PTCLDY    59  30  33 NW13      30.27R
ALLENTOWN      CLEAR     50  27  40 N9        30.28R
SCRANTON       CLEAR     44  26  49 W7        30.28R
$$

CTZ002-004>006-009-010-012-RIZ004-006-007-MAZ004-011-015-230800-
SOUTHERN NEW ENGLAND
 IN CT

CITY           SKY/WX    TMP DP  RH WIND       PRES   REMARKS
BRADLEY INTL   CLEAR     48  28  46 NW9       30.18R
HARTFORD       CLEAR     51  26  37 VRB7      30.19R
DANBURY        CLEAR     49  23  36 VRB5      30.21R
WTRBRY/OXFORD  CLEAR     46  27  46 N12       30.21R
BRIDGEPORT     CLEAR     53  29  39 NW7       30.20R
MERIDEN        CLEAR     44  34  67 N6        30.20R
NEW HAVEN      CLEAR     50  32  50 NW5       30.20R
CHESTER        FAIR      48  28  46 NW12      30.19R
GROTON         CLEAR     51  25  36 NW12      30.16R
WILLIMANTIC    CLEAR     50  26  39 NW7       30.17R

 IN RI

CITY           SKY/WX    TMP DP  RH WIND       PRES   REMARKS
PROVIDENCE     CLEAR     52  25  35 NW9       30.14R
BLOCK ISLAND   CLEAR     52  30  43 NW7       30.16R
WESTERLY       CLEAR     51  27  39 VRB6      30.16R

 IN MA

CITY           SKY/WX    TMP DP  RH WIND       PRES   REMARKS
BOSTON         PTCLDY    49  30  48 NW17G24   30.15R
WORCESTER      PTCLDY    44  31  60 N13G24    30.15R
WESTFIELD      CLEAR     46  28  49 NW8       30.19R
PROVINCETOWN   CLEAR     52  36  54 NW21G26   30.12R
NANTUCKET      PTCLDY    55  34  45 W9        30.11R
$$

ANZ330-335-338-340-345-350-353-355-230800-
COASTAL MARINE OBSERVATIONS


STATION/POSITION TIME  SKY/WX   TEMP    WIND        PRES    VSBY  WAVE
                                AIR SEA DIR/SP/G                  HT/PER
                 (UTC)          (F)     (DEG/KT/KT) (MB)    (MI)  (FT/S)
NY HARB ENTRANCE 0650            57 56  320/ 21/ 27 1022.3          3/ 3
4S FIRE IS       0603               54                N/A           2/ 7
20S FIRE ISLAND  0650            57 55  330/ 17/ 21 1022.2          2/ 5
GREAT SOUTH BAY  0630            57 63  340/ 16/ 19   N/A
23SW MTP         0650            55 52  310/ 10/ 10 1021.3          2/ 5
HUDSON CANYON    NOT AVBL
KINGS POINT      0600            56 53   10/ 21/ 25 1022.3
CENTRAL LI SOUND 0600            55 51  320/ 12/ 16   N/A
EASTERN LI SOUND 0600            54     310/ 10/ 14   N/A
ROBBINS REEF     0600            56     330/ 21/ 28 1021.7
$$


>>>>>>>>>>>>>>>>>>>>>>>>>>>> KEY <<<<<<<<<<<<<<<<<<<<<<<<<<<
>                                                          <
>     SKY/WX - SKY CONDITION/PRESENT WEATHER               <
>     TMP    - TEMPERATURE IN FAHRENHEIT                   <
>     DP     - DEWPOINT IN FAHRENHEIT                      <
>     RH     - RELATIVE HUMIDITY IN PERCENT                <
>     WIND   - DIRECTION AND SPEED IN MPH                  <
>     PRES   - MEAN SEA LEVEL PRESSURE IN INCHES OF HG     <
>     WCI    - WIND CHILL INDEX                            <
>     VSB    - VISIBILITY IN MILES                         <
>     HX     - HEAT INDEX                                  <
>     TC     - TEMPERATURE IN CELSIUS                      <
>     VRB    - VARIABLE WIND DIRECTION                     <
>                                                          <
>>>>>>>>>>>>>>>>>>>>>>>>>>>> KEY <<<<<<<<<<<<<<<<<<<<<<<<<<<





USA.gov is the U.S. government's official web portal to all federal, state and local government web resources and services.